Location: Newark
(5.8900°S, 42.6378°W)
Time: 08:56:36
(UTC+00:00)

N. Korean satellite - Visible Passes

Search period start: 26 August 2019 00:00
Search period end: 05 September 2019 00:00
Orbit: 457 x 507 km, 97.2° (Epoch: 25 August)

Date Brightness Start Highest point End Pass type
(mag) Time Alt. Az. Time Alt. Az. Time Alt. Az.
26 Aug 8.6 07:58:14 10° NE 08:01:15 29° ESE 08:04:16 10° SSE visible
26 Aug 9.8 21:16:31 10° SW 21:18:46 16° WSW 21:21:02 10° WNW visible
27 Aug 9.9 07:35:04 10° E 07:36:10 11° ESE 07:37:17 10° ESE visible
29 Aug 7.0 08:15:40 10° NNE 08:19:03 62° E 08:22:27 10° S visible
30 Aug 9.1 07:51:15 10° NE 07:53:57 22° ESE 07:56:41 10° SSE visible
30 Aug 9.6 21:08:45 10° SSW 21:11:31 20° WSW 21:14:18 10° NW visible
02 Sep 7.7 08:08:28 10° NNE 08:11:45 45° ESE 08:15:03 10° S visible
02 Sep 10.3 21:28:32 10° WSW 21:29:19 11° WSW 21:30:07 10° W visible
03 Sep 9.6 07:44:22 10° ENE 07:46:39 17° ESE 07:48:57 10° SE visible
